User: anonymous   Login
Location: NJAA Observatory
(40.6819°N, 74.8979°W)
Time: 18:01:21
(UTC-04:00)
Language:

Cosmos 220 Rocket - Orbit

View from above orbital plane
View from above orbital plane
View from above satellite
View from above satellite

Ground track
Ground track

The orbit data is extracted from the following two-line orbital elements,

1 03230U 68040B   16148.50704643  .00000345  00000-0  39746-4 0  9990
2 03230  74.0358 294.8914 0030952 347.3488  12.6912 14.89863697578079
Epoch (UTC): 27 May 2016 12:10:08
Eccentricity: 0.0030952
inclination: 74.0358°
perigee height: 577 km
apogee height: 620 km
right ascension of ascending node: 294.8914°
argument of perigee: 347.3488°
revolutions per day: 14.89863697
mean anomaly at epoch: 12.6912°
orbit number at epoch: 57807

The dashed part of the orbit path shows where the satellite is in the earth's shadow,  

DLR